Total_Precipitation_Accumulation
0.22 0.22 0.25 0.39 0.48 0.46 0.51 0.55 0.59 0.61 0.66 0.81 0.91 0.94 0.90 0.82 0.69 0.62 0.53 0.46 0.42 0.46 0.54 0.62 0.73 0.76 0.83 0.96 1.18 1.24 1.06 0.87 0.79 0.76 0.73 0.64 0.58 0.55 0.49 0.46 0.44 0.48 0.47 0.49
0.24 0.19 0.21 0.22 0.20 0.23 0.27 0.31 0.37 0.48 0.62 0.67 0.70 0.70 0.64 0.52 0.42 0.39 0.37 0.36 0.35 0.37 0.41 0.44 0.48 0.54 0.65 0.73 0.82 0.81 0.71 0.64 0.61 0.56 0.51 0.49 0.49 0.45 0.40 0.36 0.32 0.36 0.39 0.43
0.35 0.20 0.24 0.22 0.15 0.19 0.26 0.28 0.36 0.55 0.66 0.58 0.52 0.49 0.47 0.36 0.27 0.28 0.27 0.26 0.26 0.27 0.31 0.30 0.32 0.35 0.36 0.43 0.53 0.52 0.45 0.41 0.41 0.43 0.40 0.37 0.38 0.39 0.38 0.37 0.35 0.36 0.39 0.44
0.44 0.38 0.37 0.19 0.11 0.14 0.20 0.26 0.33 0.44 0.46 0.41 0.37 0.32 0.28 0.22 0.20 0.21 0.21 0.20 0.20 0.21 0.25 0.26 0.28 0.30 0.32 0.35 0.40 0.42 0.37 0.34 0.33 0.35 0.36 0.36 0.38 0.38 0.38 0.37 0.36 0.41 0.42 0.45
0.51 0.53 0.29 0.11 0.10 0.13 0.16 0.18 0.19 0.23 0.24 0.23 0.23 0.24 0.24 0.20 0.18 0.18 0.18 0.18 0.20 0.22 0.26 0.30 0.32 0.32 0.28 0.28 0.29 0.32 0.31 0.33 0.34 0.35 0.37 0.37 0.35 0.34 0.33 0.34 0.33 0.39 0.46 0.46
0.51 0.54 0.36 0.16 0.11 0.11 0.13 0.18 0.15 0.16 0.16 0.16 0.17 0.28 0.31 0.21 0.16 0.15 0.18 0.18 0.19 0.23 0.27 0.29 0.31 0.31 0.29 0.27 0.27 0.27 0.30 0.32 0.37 0.39 0.37 0.35 0.38 0.40 0.35 0.33 0.34 0.37 0.41 0.39
0.45 0.51 0.28 0.13 0.11 0.13 0.22 0.23 0.15 0.14 0.13 0.14 0.19 0.25 0.26 0.22 0.17 0.16 0.20 0.22 0.22 0.25 0.26 0.27 0.28 0.31 0.33 0.34 0.34 0.34 0.34 0.36 0.35 0.34 0.35 0.39 0.41 0.43 0.43 0.39 0.36 0.36 0.35 0.34
0.42 0.49 0.31 0.13 0.14 0.20 0.21 0.14 0.12 0.12 0.12 0.14 0.18 0.20 0.19 0.19 0.18 0.17 0.19 0.21 0.21 0.24 0.23 0.26 0.26 0.27 0.28 0.30 0.37 0.36 0.31 0.32 0.32 0.31 0.32 0.37 0.42 0.38 0.36 0.38 0.39 0.37 0.34 0.30
0.36 0.31 0.19 0.15 0.16 0.17 0.15 0.13 0.10 0.10 0.11 0.13 0.16 0.18 0.17 0.17 0.19 0.19 0.19 0.21 0.21 0.23 0.23 0.26 0.28 0.28 0.30 0.34 0.39 0.36 0.31 0.32 0.35 0.38 0.39 0.39 0.44 0.41 0.36 0.36 0.40 0.42 0.44 0.42
0.27 0.18 0.12 0.14 0.15 0.15 0.13 0.12 0.10 0.10 0.12 0.16 0.18 0.19 0.21 0.19 0.19 0.21 0.21 0.22 0.23 0.25 0.28 0.29 0.32 0.34 0.36 0.38 0.40 0.40 0.40 0.40 0.42 0.45 0.48 0.49 0.46 0.45 0.42 0.39 0.43 0.46 0.46 0.48
0.27 0.20 0.15 0.13 0.13 0.12 0.12 0.13 0.13 0.14 0.15 0.19 0.20 0.20 0.24 0.24 0.24 0.24 0.23 0.21 0.23 0.25 0.25 0.27 0.28 0.30 0.32 0.33 0.35 0.36 0.38 0.41 0.47 0.50 0.55 0.59 0.56 0.52 0.52 0.50 0.53 0.53 0.51 0.53
0.29 0.25 0.25 0.19 0.16 0.13 0.13 0.16 0.15 0.17 0.17 0.16 0.17 0.19 0.21 0.24 0.28 0.29 0.29 0.26 0.25 0.26 0.27 0.25 0.25 0.26 0.27 0.29 0.30 0.32 0.37 0.41 0.44 0.49 0.52 0.56 0.61 0.61 0.64 0.62 0.63 0.61 0.59 0.56
0.26 0.24 0.24 0.21 0.16 0.14 0.17 0.17 0.15 0.16 0.17 0.15 0.15 0.18 0.20 0.23 0.26 0.34 0.38 0.40 0.37 0.33 0.31 0.29 0.28 0.29 0.30 0.31 0.33 0.34 0.36 0.41 0.44 0.46 0.49 0.53 0.56 0.61 0.64 0.61 0.59 0.57 0.57 0.57
0.18 0.18 0.19 0.19 0.16 0.14 0.15 0.14 0.15 0.14 0.13 0.12 0.15 0.21 0.24 0.27 0.28 0.32 0.39 0.43 0.45 0.40 0.37 0.34 0.33 0.35 0.33 0.33 0.36 0.39 0.40 0.44 0.48 0.49 0.50 0.54 0.54 0.54 0.58 0.60 0.57 0.51 0.49 0.51
0.13 0.13 0.17 0.17 0.16 0.16 0.14 0.15 0.15 0.15 0.13 0.12 0.14 0.21 0.27 0.28 0.27 0.27 0.33 0.37 0.40 0.38 0.34 0.33 0.34 0.34 0.33 0.33 0.37 0.41 0.42 0.42 0.45 0.49 0.50 0.53 0.53 0.54 0.53 0.54 0.54 0.52 0.51 0.52
0.11 0.11 0.12 0.15 0.16 0.16 0.16 0.16 0.18 0.18 0.15 0.15 0.16 0.20 0.27 0.29 0.27 0.26 0.29 0.33 0.37 0.37 0.33 0.34 0.37 0.37 0.36 0.37 0.36 0.38 0.42 0.49 0.51 0.50 0.49 0.50 0.52 0.54 0.53 0.56 0.58 0.59 0.59 0.63
0.15 0.15 0.15 0.15 0.15 0.16 0.18 0.19 0.19 0.18 0.18 0.18 0.20 0.24 0.30 0.33 0.30 0.29 0.29 0.31 0.37 0.40 0.38 0.35 0.38 0.39 0.40 0.40 0.39 0.39 0.44 0.53 0.57 0.50 0.44 0.47 0.53 0.56 0.54 0.54 0.56 0.59 0.59 0.66
0.17 0.18 0.17 0.18 0.18 0.18 0.19 0.19 0.19 0.19 0.19 0.19 0.22 0.28 0.36 0.37 0.34 0.32 0.30 0.32 0.36 0.40 0.41 0.40 0.38 0.40 0.38 0.37 0.40 0.42 0.44 0.49 0.53 0.52 0.51 0.54 0.57 0.58 0.59 0.55 0.53 0.53 0.53 0.59
0.18 0.19 0.18 0.16 0.17 0.18 0.22 0.22 0.20 0.18 0.18 0.21 0.25 0.34 0.44 0.43 0.38 0.36 0.34 0.36 0.37 0.39 0.41 0.44 0.50 0.44 0.40 0.41 0.44 0.42 0.44 0.47 0.50 0.54 0.57 0.63 0.62 0.59 0.57 0.55 0.54 0.54 0.56 0.57
0.19 0.19 0.18 0.15 0.14 0.16 0.22 0.25 0.23 0.20 0.21 0.25 0.31 0.40 0.47 0.45 0.40 0.39 0.38 0.39 0.40 0.40 0.42 0.47 0.48 0.45 0.44 0.46 0.49 0.45 0.46 0.50 0.53 0.56 0.57 0.58 0.58 0.61 0.62 0.60 0.60 0.58 0.57 0.59
0.22 0.21 0.19 0.17 0.17 0.18 0.24 0.25 0.24 0.25 0.28 0.31 0.38 0.48 0.50 0.47 0.45 0.45 0.44 0.43 0.41 0.42 0.45 0.52 0.51 0.50 0.51 0.58 0.56 0.50 0.53 0.55 0.55 0.58 0.58 0.60 0.62 0.62 0.65 0.66 0.65 0.65 0.65 0.63
0.24 0.26 0.23 0.22 0.23 0.24 0.24 0.26 0.26 0.27 0.27 0.28 0.33 0.41 0.47 0.49 0.48 0.45 0.44 0.45 0.47 0.52 0.49 0.49 0.55 0.62 0.65 0.64 0.56 0.57 0.61 0.62 0.60 0.60 0.64 0.66 0.68 0.68 0.66 0.67 0.68 0.68 0.67 0.67
0.26 0.27 0.28 0.27 0.28 0.27 0.28 0.28 0.28 0.29 0.29 0.30 0.33 0.36 0.45 0.47 0.46 0.45 0.47 0.44 0.46 0.54 0.52 0.51 0.61 0.68 0.69 0.60 0.56 0.62 0.68 0.69 0.68 0.68 0.70 0.74 0.77 0.75 0.72 0.68 0.68 0.69 0.67 0.66
0.28 0.29 0.29 0.28 0.30 0.31 0.32 0.29 0.27 0.30 0.33 0.35 0.35 0.40 0.47 0.50 0.48 0.45 0.49 0.54 0.58 0.59 0.54 0.60 0.70 0.70 0.68 0.60 0.62 0.68 0.71 0.72 0.73 0.72 0.72 0.72 0.75 0.77 0.78 0.76 0.73 0.70 0.69 0.68
0.35 0.33 0.32 0.33 0.36 0.38 0.38 0.33 0.30 0.31 0.33 0.38 0.41 0.47 0.49 0.54 0.58 0.55 0.52 0.52 0.58 0.60 0.55 0.63 0.73 0.75 0.68 0.66 0.68 0.72 0.74 0.78 0.81 0.79 0.75 0.77 0.79 0.82 0.83 0.83 0.82 0.78 0.76 0.75
0.36 0.34 0.33 0.34 0.38 0.43 0.43 0.41 0.39 0.37 0.40 0.48 0.54 0.57 0.53 0.54 0.55 0.57 0.56 0.56 0.58 0.63 0.60 0.62 0.65 0.67 0.64 0.67 0.70 0.72 0.73 0.80 0.84 0.82 0.80 0.81 0.82 0.86 0.89 0.89 0.88 0.86 0.86 0.84
0.39 0.38 0.37 0.36 0.37 0.40 0.41 0.43 0.47 0.47 0.49 0.57 0.65 0.67 0.62 0.61 0.62 0.64 0.65 0.63 0.62 0.61 0.61 0.60 0.62 0.64 0.67 0.69 0.71 0.71 0.71 0.74 0.78 0.80 0.83 0.86 0.88 0.90 0.94 0.97 0.96 0.94 0.96 0.98